Wetterdaten: Samstag, 30.11.2013
Datum Zeit Temp. A. Temp. A. min Temp. A. max Feuchte A. Luftdruck Regen Wind Richtung Richtung Sonnenschein ET Solar Taupunkt Windchill Windben Empfang
30.11.2013 00:00 2,8 C 0,0 C 0,0 C 85 % 1013,5 hPa 0,0 l/m 6,7 km/h (2 Bft) W 260 0 min 0,000 mm 0 W/m 0,5 C 1,0 C 6,7 km/h (2 Bft) 0,00 %
30.11.2013 00:05 2,7 C 0,0 C 0,0 C 85 % 1013,5 hPa 0,0 l/m 2,1 km/h (1 Bft) W 260 0 min 0,000 mm 0 W/m 0,4 C 2,7 C 2,1 km/h (1 Bft) 0,00 %
30.11.2013 00:10 2,6 C 0,0 C 0,0 C 85 % 1013,5 hPa 0,0 l/m 5,1 km/h (1 Bft) W 280 0 min 0,000 mm 0 W/m 0,3 C 1,3 C 5,1 km/h (1 Bft) 0,00 %
30.11.2013 00:15 2,5 C 0,0 C 0,0 C 85 % 1013,5 hPa 0,0 l/m 6,1 km/h (2 Bft) W-SW 240 0 min 0,000 mm 0 W/m 0,2 C 0,8 C 6,1 km/h (2 Bft) 0,00 %
30.11.2013 00:20 2,5 C 0,0 C 0,0 C 86 % 1013,5 hPa 0,0 l/m 6,4 km/h (2 Bft) W-SW 255 0 min 0,000 mm 0 W/m 0,4 C 0,7 C 6,4 km/h (2 Bft) 0,00 %
30.11.2013 00:25 2,5 C 0,0 C 0,0 C 86 % 1013,5 hPa 0,0 l/m 4,5 km/h (1 Bft) W 275 0 min 0,000 mm 0 W/m 0,4 C 2,5 C 4,5 km/h (1 Bft) 0,00 %
30.11.2013 00:30 2,4 C 0,0 C 0,0 C 86 % 1014,5 hPa 0,0 l/m 5,4 km/h (1 Bft) NW 305 0 min 0,000 mm 0 W/m 0,3 C 1,0 C 5,4 km/h (1 Bft) 0,00 %
30.11.2013 00:35 2,3 C 0,0 C 0,0 C 86 % 1014,5 hPa 0,0 l/m 4,2 km/h (1 Bft) W 270 0 min 0,000 mm 0 W/m 0,2 C 2,3 C 4,2 km/h (1 Bft) 0,00 %
30.11.2013 00:40 2,3 C 0,0 C 0,0 C 86 % 1014,5 hPa 0,0 l/m 3,9 km/h (1 Bft) S 175 0 min 0,000 mm 0 W/m 0,2 C 2,3 C 3,9 km/h (1 Bft) 0,00 %
30.11.2013 00:45 2,3 C 0,0 C 0,0 C 86 % 1013,5 hPa 0,0 l/m 11,2 km/h (2 Bft) S-SW 200 0 min 0,000 mm 0 W/m 0,2 C -0,8 C 11,2 km/h (2 Bft) 0,00 %
30.11.2013 00:50 2,2 C 0,0 C 0,0 C 85 % 1013,5 hPa 0,0 l/m 2,4 km/h (1 Bft) W-NW 290 0 min 0,000 mm 0 W/m -0,1 C 2,2 C 2,4 km/h (1 Bft) 0,00 %
30.11.2013 00:55 2,3 C 0,0 C 0,0 C 85 % 1013,5 hPa 0,0 l/m 6,1 km/h (2 Bft) N-NW 335 0 min 0,000 mm 0 W/m 0,0 C 0,6 C 6,1 km/h (2 Bft) 0,00 %
30.11.2013 01:00 2,2 C 0,0 C 0,0 C 85 % 1013,5 hPa 0,0 l/m 5,1 km/h (1 Bft) NW 305 0 min 0,000 mm 0 W/m -0,1 C 0,9 C 5,1 km/h (1 Bft) 0,00 %
30.11.2013 01:05 2,1 C 0,0 C 0,0 C 85 % 1013,5 hPa 0,0 l/m 5,1 km/h (1 Bft) W-SW 250 0 min 0,000 mm 0 W/m -0,2 C 0,7 C 5,1 km/h (1 Bft) 0,00 %
30.11.2013 01:10 2,0 C 0,0 C 0,0 C 85 % 1013,5 hPa 0,0 l/m 2,4 km/h (1 Bft) W 260 0 min 0,000 mm 0 W/m -0,3 C 2,0 C 2,4 km/h (1 Bft) 0,00 %
30.11.2013 01:15 2,2 C 0,0 C 0,0 C 85 % 1013,5 hPa 0,0 l/m 7,0 km/h (2 Bft) NW 305 0 min 0,000 mm 0 W/m -0,1 C 0,2 C 7,0 km/h (2 Bft) 0,00 %
30.11.2013 01:20 1,9 C 0,0 C 0,0 C 85 % 1013,5 hPa 0,0 l/m 5,1 km/h (1 Bft) N-NW 345 0 min 0,000 mm 0 W/m -0,3 C 0,5 C 5,1 km/h (1 Bft) 0,00 %
30.11.2013 01:25 1,8 C 0,0 C 0,0 C 85 % 1013,5 hPa 0,0 l/m 3,6 km/h (1 Bft) N-NW 340 0 min 0,000 mm 0 W/m -0,4 C 1,8 C 3,6 km/h (1 Bft) 0,00 %
30.11.2013 01:30 1,8 C 0,0 C 0,0 C 86 % 1013,5 hPa 0,0 l/m 9,4 km/h (2 Bft) W-NW 290 0 min 0,000 mm 0 W/m -0,3 C -1,0 C 9,4 km/h (2 Bft) 0,00 %
30.11.2013 01:35 1,7 C 0,0 C 0,0 C 86 % 1013,5 hPa 0,0 l/m 4,5 km/h (1 Bft) W 280 0 min 0,000 mm 0 W/m -0,4 C 1,7 C 4,5 km/h (1 Bft) 0,00 %
30.11.2013 01:40 1,6 C 0,0 C 0,0 C 86 % 1013,5 hPa 0,0 l/m 4,8 km/h (1 Bft) NO 35 0 min 0,000 mm 0 W/m -0,5 C 0,3 C 4,8 km/h (1 Bft) 0,00 %
30.11.2013 01:45 1,6 C 0,0 C 0,0 C 86 % 1013,5 hPa 0,0 l/m 10,3 km/h (2 Bft) W-SW 250 0 min 0,000 mm 0 W/m -0,5 C -1,5 C 10,3 km/h (2 Bft) 0,00 %
30.11.2013 01:50 1,6 C 0,0 C 0,0 C 86 % 1013,5 hPa 0,0 l/m 3,3 km/h (1 Bft) NW 325 0 min 0,000 mm 0 W/m -0,5 C 1,6 C 3,3 km/h (1 Bft) 0,00 %
30.11.2013 01:55 1,6 C 0,0 C 0,0 C 86 % 1013,5 hPa 0,0 l/m 2,1 km/h (1 Bft) SW 225 0 min 0,000 mm 0 W/m -0,5 C 1,6 C 2,1 km/h (1 Bft) 0,00 %
30.11.2013 02:00 1,7 C 0,0 C 0,0 C 86 % 1012,5 hPa 0,0 l/m 0,0 km/h (0 Bft) SO 135 0 min 0,000 mm 0 W/m -0,4 C 1,7 C 0,0 km/h (0 Bft) 0,00 %
30.11.2013 02:05 1,8 C 0,0 C 0,0 C 86 % 1012,5 hPa 0,0 l/m 4,5 km/h (1 Bft) W-NW 300 0 min 0,000 mm 0 W/m -0,3 C 1,8 C 4,5 km/h (1 Bft) 0,00 %
30.11.2013 02:10 1,8 C 0,0 C 0,0 C 86 % 1012,5 hPa 0,0 l/m 2,7 km/h (1 Bft) W-SW 245 0 min 0,000 mm 0 W/m -0,3 C 1,8 C 2,7 km/h (1 Bft) 0,00 %
30.11.2013 02:15 2,0 C 0,0 C 0,0 C 86 % 1013,5 hPa 0,0 l/m 6,1 km/h (2 Bft) SW 230 0 min 0,000 mm 0 W/m -0,1 C 0,2 C 6,1 km/h (2 Bft) 0,00 %
30.11.2013 02:20 1,8 C 0,0 C 0,0 C 85 % 1013,5 hPa 0,0 l/m 3,0 km/h (1 Bft) W 270 0 min 0,000 mm 0 W/m -0,4 C 1,8 C 3,0 km/h (1 Bft) 0,00 %
30.11.2013 02:25 1,7 C 0,0 C 0,0 C 86 % 1013,5 hPa 0,0 l/m 7,3 km/h (2 Bft) W-NW 295 0 min 0,000 mm 0 W/m -0,4 C -0,5 C 7,3 km/h (2 Bft) 0,00 %
30.11.2013 02:30 1,7 C 0,0 C 0,0 C 86 % 1013,5 hPa 0,0 l/m 5,1 km/h (1 Bft) NW 305 0 min 0,000 mm 0 W/m -0,4 C 0,3 C 5,1 km/h (1 Bft) 0,00 %
30.11.2013 02:35 1,6 C 0,0 C 0,0 C 86 % 1013,5 hPa 0,0 l/m 5,7 km/h (1 Bft) W-NW 295 0 min 0,000 mm 0 W/m -0,5 C -0,1 C 5,7 km/h (1 Bft) 0,00 %
30.11.2013 02:40 1,4 C 0,0 C 0,0 C 86 % 1013,5 hPa 0,0 l/m 1,8 km/h (1 Bft) W 260 0 min 0,000 mm 0 W/m -0,7 C 1,4 C 1,8 km/h (1 Bft) 0,00 %
30.11.2013 02:45 1,3 C 0,0 C 0,0 C 86 % 1013,5 hPa 0,0 l/m 0,0 km/h (0 Bft) W 260 0 min 0,000 mm 0 W/m -0,8 C 1,3 C 0,0 km/h (0 Bft) 0,00 %
30.11.2013 02:50 1,2 C 0,0 C 0,0 C 86 % 1013,5 hPa 0,0 l/m 0,0 km/h (0 Bft) W 280 0 min 0,000 mm 0 W/m -0,9 C 1,2 C 0,0 km/h (0 Bft) 0,00 %
30.11.2013 02:55 1,3 C 0,0 C 0,0 C 86 % 1013,5 hPa 0,0 l/m 5,1 km/h (1 Bft) N-NO 15 0 min 0,000 mm 0 W/m -0,8 C -0,2 C 5,1 km/h (1 Bft) 0,00 %
30.11.2013 03:00 1,2 C 0,0 C 0,0 C 86 % 1013,5 hPa 0,0 l/m 3,0 km/h (1 Bft) N-NW 340 0 min 0,000 mm 0 W/m -0,9 C 1,2 C 3,0 km/h (1 Bft) 0,00 %
30.11.2013 03:05 1,4 C 0,0 C 0,0 C 87 % 1013,5 hPa 0,0 l/m 4,5 km/h (1 Bft) N-NW 335 0 min 0,000 mm 0 W/m -0,5 C 1,4 C 4,5 km/h (1 Bft) 0,00 %
30.11.2013 03:10 1,5 C 0,0 C 0,0 C 87 % 1013,5 hPa 0,0 l/m 3,0 km/h (1 Bft) NW 305 0 min 0,000 mm 0 W/m -0,4 C 1,5 C 3,0 km/h (1 Bft) 0,00 %
30.11.2013 03:15 1,8 C 0,0 C 0,0 C 86 % 1013,5 hPa 0,0 l/m 7,3 km/h (2 Bft) W-SW 245 0 min 0,000 mm 0 W/m -0,3 C -0,4 C 7,3 km/h (2 Bft) 0,00 %
30.11.2013 03:20 1,8 C 0,0 C 0,0 C 86 % 1013,5 hPa 0,0 l/m 9,1 km/h (2 Bft) W-NW 300 0 min 0,000 mm 0 W/m -0,3 C -0,9 C 9,1 km/h (2 Bft) 0,00 %
30.11.2013 03:25 1,7 C 0,0 C 0,0 C 86 % 1013,5 hPa 0,0 l/m 6,4 km/h (2 Bft) NW 315 0 min 0,000 mm 0 W/m -0,4 C -0,2 C 6,4 km/h (2 Bft) 0,00 %
30.11.2013 03:30 1,6 C 0,0 C 0,0 C 86 % 1013,5 hPa 0,0 l/m 6,1 km/h (2 Bft) NW 325 0 min 0,000 mm 0 W/m -0,5 C -0,2 C 6,1 km/h (2 Bft) 0,00 %
30.11.2013 03:35 1,6 C 0,0 C 0,0 C 86 % 1013,5 hPa 0,0 l/m 6,1 km/h (2 Bft) W-NW 295 0 min 0,000 mm 0 W/m -0,5 C -0,2 C 6,1 km/h (2 Bft) 0,00 %
30.11.2013 03:40 1,4 C 0,0 C 0,0 C 86 % 1013,5 hPa 0,0 l/m 3,0 km/h (1 Bft) NW 325 0 min 0,000 mm 0 W/m -0,7 C 1,4 C 3,0 km/h (1 Bft) 0,00 %
30.11.2013 03:45 1,4 C 0,0 C 0,0 C 86 % 1013,5 hPa 0,0 l/m 3,9 km/h (1 Bft) W 280 0 min 0,000 mm 0 W/m -0,7 C 1,4 C 3,9 km/h (1 Bft) 0,00 %
30.11.2013 03:50 1,3 C 0,0 C 0,0 C 86 % 1013,5 hPa 0,0 l/m 3,6 km/h (1 Bft) N 355 0 min 0,000 mm 0 W/m -0,8 C 1,3 C 3,6 km/h (1 Bft) 0,00 %
30.11.2013 03:55 1,3 C 0,0 C 0,0 C 86 % 1013,5 hPa 0,0 l/m 0,0 km/h (0 Bft) W-SW 240 0 min 0,000 mm 0 W/m -0,8 C 1,3 C 0,0 km/h (0 Bft) 0,00 %
30.11.2013 04:00 1,3 C 0,0 C 0,0 C 86 % 1013,5 hPa 0,0 l/m 3,0 km/h (1 Bft) W-NW 290 0 min 0,000 mm 0 W/m -0,8 C 1,3 C 3,0 km/h (1 Bft) 0,00 %
30.11.2013 04:05 1,3 C 0,0 C 0,0 C 86 % 1013,5 hPa 0,0 l/m 2,7 km/h (1 Bft) W 275 0 min 0,000 mm 0 W/m -0,8 C 1,3 C 2,7 km/h (1 Bft) 0,00 %
30.11.2013 04:10 1,6 C 0,0 C 0,0 C 86 % 1013,5 hPa 0,0 l/m 11,5 km/h (2 Bft) W-SW 245 0 min 0,000 mm 0 W/m -0,5 C -1,8 C 11,5 km/h (2 Bft) 0,00 %
30.11.2013 04:15 1,4 C 0,0 C 0,0 C 86 % 1013,5 hPa 0,0 l/m 5,7 km/h (1 Bft) W-NW 300 0 min 0,000 mm 0 W/m -0,7 C -0,3 C 5,7 km/h (1 Bft) 0,00 %
30.11.2013 04:20 1,5 C 0,0 C 0,0 C 86 % 1013,5 hPa 0,0 l/m 9,7 km/h (2 Bft) W-NW 300 0 min 0,000 mm 0 W/m -0,6 C -1,4 C 9,7 km/h (2 Bft) 0,00 %
30.11.2013 04:25 1,5 C 0,0 C 0,0 C 86 % 1013,5 hPa 0,0 l/m 8,2 km/h (2 Bft) W-NW 295 0 min 0,000 mm 0 W/m -0,6 C -1,0 C 8,2 km/h (2 Bft) 0,00 %
30.11.2013 04:30 1,4 C 0,0 C 0,0 C 85 % 1013,5 hPa 0,0 l/m 2,4 km/h (1 Bft) W 280 0 min 0,000 mm 0 W/m -0,8 C 1,4 C 2,4 km/h (1 Bft) 0,00 %
30.11.2013 04:35 1,3 C 0,0 C 0,0 C 86 % 1013,5 hPa 0,0 l/m 1,2 km/h (1 Bft) N 355 0 min 0,000 mm 0 W/m -0,8 C 1,3 C 1,2 km/h (1 Bft) 0,00 %
30.11.2013 04:40 1,4 C 0,0 C 0,0 C 86 % 1013,5 hPa 0,0 l/m 0,3 km/h (0 Bft) W-NW 295 0 min 0,000 mm 0 W/m -0,7 C 1,4 C 0,3 km/h (0 Bft) 0,00 %
30.11.2013 04:45 1,7 C 0,0 C 0,0 C 85 % 1013,5 hPa 0,0 l/m 8,8 km/h (2 Bft) W-NW 295 0 min 0,000 mm 0 W/m -0,5 C -1,0 C 8,8 km/h (2 Bft) 0,00 %
30.11.2013 04:50 1,8 C 0,0 C 0,0 C 85 % 1013,5 hPa 0,0 l/m 4,5 km/h (1 Bft) W-SW 240 0 min 0,000 mm 0 W/m -0,4 C 1,8 C 4,5 km/h (1 Bft) 0,00 %
30.11.2013 04:55 2,0 C 0,0 C 0,0 C 84 % 1013,5 hPa 0,0 l/m 12,7 km/h (3 Bft) NW 315 0 min 0,000 mm 0 W/m -0,4 C -1,5 C 12,7 km/h (3 Bft) 0,00 %
30.11.2013 05:00 1,9 C 0,0 C 0,0 C 84 % 1013,5 hPa 0,0 l/m 0,0 km/h (0 Bft) NW 325 0 min 0,000 mm 0 W/m -0,5 C 1,9 C 0,0 km/h (0 Bft) 0,00 %
30.11.2013 05:05 1,2 C 0,0 C 0,0 C 84 % 1013,5 hPa 0,0 l/m 5,7 km/h (1 Bft) S-SO 150 0 min 0,000 mm 0 W/m -1,2 C -0,5 C 5,7 km/h (1 Bft) 0,00 %
30.11.2013 05:10 0,9 C 0,0 C 0,0 C 85 % 1013,5 hPa 0,0 l/m 1,2 km/h (1 Bft) SO 135 0 min 0,000 mm 0 W/m -1,3 C 0,9 C 1,2 km/h (1 Bft) 0,00 %
30.11.2013 05:15 0,8 C 0,0 C 0,0 C 86 % 1013,5 hPa 0,0 l/m 1,5 km/h (1 Bft) O-SO 110 0 min 0,000 mm 0 W/m -1,3 C 0,8 C 1,5 km/h (1 Bft) 0,00 %
30.11.2013 05:20 0,7 C 0,0 C 0,0 C 86 % 1013,5 hPa 0,0 l/m 0,0 km/h (0 Bft) N 355 0 min 0,000 mm 0 W/m -1,4 C 0,7 C 0,0 km/h (0 Bft) 0,00 %
30.11.2013 05:25 0,8 C 0,0 C 0,0 C 87 % 1013,5 hPa 0,0 l/m 1,8 km/h (1 Bft) S-SW 200 0 min 0,000 mm 0 W/m -1,1 C 0,8 C 1,8 km/h (1 Bft) 0,00 %
30.11.2013 05:30 0,8 C 0,0 C 0,0 C 87 % 1013,5 hPa 0,0 l/m 1,5 km/h (1 Bft) W 265 0 min 0,000 mm 0 W/m -1,1 C 0,8 C 1,5 km/h (1 Bft) 0,00 %
30.11.2013 05:35 0,8 C 0,0 C 0,0 C 87 % 1013,5 hPa 0,0 l/m 0,0 km/h (0 Bft) W 275 0 min 0,000 mm 0 W/m -1,1 C 0,8 C 0,0 km/h (0 Bft) 0,00 %
30.11.2013 05:40 0,9 C 0,0 C 0,0 C 87 % 1013,5 hPa 0,0 l/m 2,1 km/h (1 Bft) S-SW 205 0 min 0,000 mm 0 W/m -1,0 C 0,9 C 2,1 km/h (1 Bft) 0,00 %
30.11.2013 05:45 0,9 C 0,0 C 0,0 C 87 % 1013,5 hPa 0,0 l/m 3,3 km/h (1 Bft) W 280 0 min 0,000 mm 0 W/m -1,0 C 0,9 C 3,3 km/h (1 Bft) 0,00 %
30.11.2013 05:50 1,0 C 0,0 C 0,0 C 87 % 1013,5 hPa 0,0 l/m 0,0 km/h (0 Bft) SW 215 0 min 0,000 mm 0 W/m -0,9 C 1,0 C 0,0 km/h (0 Bft) 0,00 %
30.11.2013 05:55 0,9 C 0,0 C 0,0 C 87 % 1013,5 hPa 0,0 l/m 4,8 km/h (1 Bft) O-SO 110 0 min 0,000 mm 0 W/m -1,0 C -0,5 C 4,8 km/h (1 Bft) 0,00 %
30.11.2013 06:00 0,7 C 0,0 C 0,0 C 87 % 1013,5 hPa 0,0 l/m 3,3 km/h (1 Bft) O-NO 75 0 min 0,000 mm 0 W/m -1,2 C 0,7 C 3,3 km/h (1 Bft) 0,00 %
30.11.2013 06:05 0,6 C 0,0 C 0,0 C 87 % 1013,5 hPa 0,0 l/m 0,0 km/h (0 Bft) SO 130 0 min 0,000 mm 0 W/m -1,3 C 0,6 C 0,0 km/h (0 Bft) 0,00 %
30.11.2013 06:10 0,6 C 0,0 C 0,0 C 87 % 1013,5 hPa 0,0 l/m 0,0 km/h (0 Bft) O-NO 65 0 min 0,000 mm 0 W/m -1,3 C 0,6 C 0,0 km/h (0 Bft) 0,00 %
30.11.2013 06:15 0,7 C 0,0 C 0,0 C 88 % 1014,5 hPa 0,0 l/m 3,0 km/h (1 Bft) S 190 0 min 0,000 mm 0 W/m -1,1 C 0,7 C 3,0 km/h (1 Bft) 0,00 %
30.11.2013 06:20 0,7 C 0,0 C 0,0 C 88 % 1014,5 hPa 0,0 l/m 0,0 km/h (0 Bft) SW 215 0 min 0,000 mm 0 W/m -1,1 C 0,7 C 0,0 km/h (0 Bft) 0,00 %
30.11.2013 06:25 0,7 C 0,0 C 0,0 C 88 % 1014,5 hPa 0,0 l/m 0,0 km/h (0 Bft) NW 305 0 min 0,000 mm 0 W/m -1,1 C 0,7 C 0,0 km/h (0 Bft) 0,00 %
30.11.2013 06:30 0,7 C 0,0 C 0,0 C 88 % 1014,5 hPa 0,0 l/m 0,0 km/h (0 Bft) N-NW 340 0 min 0,000 mm 0 W/m -1,1 C 0,7 C 0,0 km/h (0 Bft) 0,00 %
30.11.2013 06:35 0,7 C 0,0 C 0,0 C 88 % 1014,5 hPa 0,0 l/m 0,0 km/h (0 Bft) N-NW 330 0 min 0,000 mm 0 W/m -1,1 C 0,7 C 0,0 km/h (0 Bft) 0,00 %
30.11.2013 06:40 0,8 C 0,0 C 0,0 C 88 % 1014,5 hPa 0,0 l/m 0,0 km/h (0 Bft) W 280 0 min 0,000 mm 0 W/m -1,0 C 0,8 C 0,0 km/h (0 Bft) 0,00 %
30.11.2013 06:45 0,8 C 0,0 C 0,0 C 88 % 1014,5 hPa 0,0 l/m 0,0 km/h (0 Bft) W-NW 295 0 min 0,000 mm 0 W/m -1,0 C 0,8 C 0,0 km/h (0 Bft) 0,00 %
30.11.2013 06:50 0,8 C 0,0 C 0,0 C 88 % 1014,5 hPa 0,0 l/m 0,0 km/h (0 Bft) S-SO 165 0 min 0,000 mm 0 W/m -1,0 C 0,8 C 0,0 km/h (0 Bft) 0,00 %
30.11.2013 06:55 0,7 C 0,0 C 0,0 C 88 % 1014,5 hPa 0,0 l/m 0,6 km/h (0 Bft) S-SO 165 0 min 0,000 mm 0 W/m -1,1 C 0,7 C 0,6 km/h (0 Bft) 0,00 %
30.11.2013 07:00 0,8 C 0,0 C 0,0 C 88 % 1014,5 hPa 0,0 l/m 0,0 km/h (0 Bft) W-SW 250 0 min 0,000 mm 0 W/m -1,0 C 0,8 C 0,0 km/h (0 Bft) 0,00 %
30.11.2013 07:05 0,8 C 0,0 C 0,0 C 88 % 1014,5 hPa 0,0 l/m 2,1 km/h (1 Bft) S 190 0 min 0,000 mm 0 W/m -1,0 C 0,8 C 2,1 km/h (1 Bft) 0,00 %
30.11.2013 07:10 0,8 C 0,0 C 0,0 C 88 % 1014,5 hPa 0,0 l/m 3,0 km/h (1 Bft) S 190 0 min 0,000 mm 0 W/m -1,0 C 0,8 C 3,0 km/h (1 Bft) 0,00 %
30.11.2013 07:15 0,7 C 0,0 C 0,0 C 88 % 1014,5 hPa 0,0 l/m 1,2 km/h (1 Bft) S-SO 155 0 min 0,000 mm 0 W/m -1,1 C 0,7 C 1,2 km/h (1 Bft) 0,00 %
30.11.2013 07:20 0,7 C 0,0 C 0,0 C 88 % 1014,5 hPa 0,0 l/m 0,0 km/h (0 Bft) SO 140 0 min 0,000 mm 0 W/m -1,1 C 0,7 C 0,0 km/h (0 Bft) 0,00 %
30.11.2013 07:25 0,7 C 0,0 C 0,0 C 89 % 1014,5 hPa 0,0 l/m 0,0 km/h (0 Bft) NW 320 0 min 0,000 mm 0 W/m -0,9 C 0,7 C 0,0 km/h (0 Bft) 0,00 %
30.11.2013 07:30 0,8 C 0,0 C 0,0 C 88 % 1015,5 hPa 0,0 l/m 0,0 km/h (0 Bft) W-NW 295 0 min 0,000 mm 0 W/m -1,0 C 0,8 C 0,0 km/h (0 Bft) 0,00 %
30.11.2013 07:35 0,8 C 0,0 C 0,0 C 89 % 1015,5 hPa 0,0 l/m 0,0 km/h (0 Bft) W 260 0 min 0,000 mm 0 W/m -0,8 C 0,8 C 0,0 km/h (0 Bft) 0,00 %
30.11.2013 07:40 0,8 C 0,0 C 0,0 C 89 % 1015,5 hPa 0,0 l/m 0,0 km/h (0 Bft) N-NW 345 0 min 0,000 mm 0 W/m -0,8 C 0,8 C 0,0 km/h (0 Bft) 0,00 %
30.11.2013 07:45 0,7 C 0,0 C 0,0 C 89 % 1015,5 hPa 0,0 l/m 0,0 km/h (0 Bft) NO 50 0 min 0,000 mm 0 W/m -0,9 C 0,7 C 0,0 km/h (0 Bft) 0,00 %
30.11.2013 07:50 0,8 C 0,0 C 0,0 C 89 % 1015,5 hPa 0,0 l/m 0,0 km/h (0 Bft) O-NO 60 0 min 0,000 mm 0 W/m -0,8 C 0,8 C 0,0 km/h (0 Bft) 0,00 %
30.11.2013 07:55 0,7 C 0,0 C 0,0 C 89 % 1015,5 hPa 0,0 l/m 0,0 km/h (0 Bft) N-NO 15 0 min 0,000 mm 0 W/m -0,9 C 0,7 C 0,0 km/h (0 Bft) 0,00 %
30.11.2013 08:00 0,8 C 0,0 C 0,0 C 89 % 1015,5 hPa 0,0 l/m 0,0 km/h (0 Bft) N-NO 15 0 min 0,000 mm 0 W/m -0,8 C 0,8 C 0,0 km/h (0 Bft) 0,00 %
30.11.2013 08:05 0,8 C 0,0 C 0,0 C 89 % 1015,5 hPa 0,0 l/m 0,0 km/h (0 Bft) N 5 0 min 0,000 mm 0 W/m -0,8 C 0,8 C 0,0 km/h (0 Bft) 0,00 %
30.11.2013 08:10 0,9 C 0,0 C 0,0 C 89 % 1015,5 hPa 0,0 l/m 0,0 km/h (0 Bft) NW 305 0 min 0,000 mm 0 W/m -0,7 C 0,9 C 0,0 km/h (0 Bft) 0,00 %
30.11.2013 08:15 0,9 C 0,0 C 0,0 C 89 % 1015,5 hPa 0,0 l/m 1,8 km/h (1 Bft) SW 230 0 min 0,000 mm 0 W/m -0,7 C 0,9 C 1,8 km/h (1 Bft) 0,00 %
30.11.2013 08:20 0,9 C 0,0 C 0,0 C 89 % 1015,5 hPa 0,0 l/m 0,0 km/h (0 Bft) N 350 0 min 0,000 mm 0 W/m -0,7 C 0,9 C 0,0 km/h (0 Bft) 0,00 %
30.11.2013 08:25 0,8 C 0,0 C 0,0 C 89 % 1015,5 hPa 0,0 l/m 0,0 km/h (0 Bft) NW 325 0 min 0,000 mm 0 W/m -0,8 C 0,8 C 0,0 km/h (0 Bft) 0,00 %
30.11.2013 08:30 0,9 C 0,0 C 0,0 C 89 % 1015,5 hPa 0,0 l/m 0,0 km/h (0 Bft) W-SW 240 0 min 0,000 mm 0 W/m -0,7 C 0,9 C 0,0 km/h (0 Bft) 0,00 %
30.11.2013 08:35 0,9 C 0,0 C 0,0 C 89 % 1015,5 hPa 0,0 l/m 0,0 km/h (0 Bft) W-SW 250 0 min 0,000 mm 0 W/m -0,7 C 0,9 C 0,0 km/h (0 Bft) 0,00 %
30.11.2013 08:40 1,0 C 0,0 C 0,0 C 89 % 1015,5 hPa 0,0 l/m 0,0 km/h (0 Bft) S-SW 205 0 min 0,000 mm 0 W/m -0,6 C 1,0 C 0,0 km/h (0 Bft) 0,00 %
30.11.2013 08:45 1,1 C 0,0 C 0,0 C 88 % 1016,5 hPa 0,0 l/m 0,0 km/h (0 Bft) S 170 0 min 0,000 mm 0 W/m -0,7 C 1,1 C 0,0 km/h (0 Bft) 0,00 %
30.11.2013 08:50 1,3 C 0,0 C 0,0 C 89 % 1016,5 hPa 0,0 l/m 0,0 km/h (0 Bft) NW 320 0 min 0,000 mm 0 W/m -0,3 C 1,3 C 0,0 km/h (0 Bft) 0,00 %
30.11.2013 08:55 1,5 C 0,0 C 0,0 C 89 % 1016,5 hPa 0,0 l/m 1,8 km/h (1 Bft) W 275 0 min 0,000 mm 0 W/m -0,1 C 1,5 C 1,8 km/h (1 Bft) 0,00 %
30.11.2013 09:00 1,5 C 0,0 C 0,0 C 89 % 1015,5 hPa 0,0 l/m 1,2 km/h (1 Bft) S-SO 150 0 min 0,000 mm 0 W/m -0,1 C 1,5 C 1,2 km/h (1 Bft) 0,00 %
30.11.2013 09:05 1,6 C 0,0 C 0,0 C 88 % 1015,5 hPa 0,0 l/m 5,7 km/h (1 Bft) SW 230 0 min 0,000 mm 0 W/m -0,2 C -0,1 C 5,7 km/h (1 Bft) 0,00 %
30.11.2013 09:10 1,7 C 0,0 C 0,0 C 88 % 1015,5 hPa 0,0 l/m 2,7 km/h (1 Bft) W-NW 300 0 min 0,000 mm 0 W/m -0,1 C 1,7 C 2,7 km/h (1 Bft) 0,00 %
30.11.2013 09:15 2,1 C 0,0 C 0,0 C 88 % 1016,5 hPa 0,0 l/m 0,0 km/h (0 Bft) W-NW 300 0 min 0,000 mm 0 W/m 0,3 C 2,1 C 0,0 km/h (0 Bft) 0,00 %
30.11.2013 09:20 2,4 C 0,0 C 0,0 C 88 % 1016,5 hPa 0,0 l/m 3,3 km/h (1 Bft) N 355 0 min 0,000 mm 0 W/m 0,6 C 2,4 C 3,3 km/h (1 Bft) 0,00 %
30.11.2013 09:25 2,8 C 0,0 C 0,0 C 87 % 1016,5 hPa 0,0 l/m 6,1 km/h (2 Bft) W 265 0 min 0,000 mm 0 W/m 0,9 C 1,2 C 6,1 km/h (2 Bft) 0,00 %
30.11.2013 09:30 3,1 C 0,0 C 0,0 C 85 % 1016,5 hPa 0,0 l/m 3,0 km/h (1 Bft) W 275 0 min 0,000 mm 0 W/m 0,8 C 3,1 C 3,0 km/h (1 Bft) 0,00 %
30.11.2013 09:35 3,1 C 0,0 C 0,0 C 84 % 1016,5 hPa 0,0 l/m 1,8 km/h (1 Bft) N-NW 335 0 min 0,000 mm 0 W/m 0,7 C 3,1 C 1,8 km/h (1 Bft) 0,00 %
30.11.2013 09:40 3,1 C 0,0 C 0,0 C 83 % 1016,5 hPa 0,0 l/m 3,6 km/h (1 Bft) NO 55 0 min 0,000 mm 0 W/m 0,5 C 3,1 C 3,6 km/h (1 Bft) 0,00 %
30.11.2013 09:45 3,0 C 0,0 C 0,0 C 83 % 1017,5 hPa 0,0 l/m 0,0 km/h (0 Bft) W 260 0 min 0,000 mm 0 W/m 0,4 C 3,0 C 0,0 km/h (0 Bft) 0,00 %
30.11.2013 09:50 3,0 C 0,0 C 0,0 C 83 % 1017,5 hPa 0,0 l/m 1,8 km/h (1 Bft) W 270 0 min 0,000 mm 0 W/m 0,4 C 3,0 C 1,8 km/h (1 Bft) 0,00 %
30.11.2013 09:55 2,7 C 0,0 C 0,0 C 83 % 1017,5 hPa 0,0 l/m 3,9 km/h (1 Bft) S 175 0 min 0,000 mm 0 W/m 0,1 C 2,7 C 3,9 km/h (1 Bft) 0,00 %
30.11.2013 10:00 2,7 C 0,0 C 0,0 C 84 % 1016,5 hPa 0,0 l/m 0,0 km/h (0 Bft) NO 45 0 min 0,000 mm 0 W/m 0,3 C 2,7 C 0,0 km/h (0 Bft) 0,00 %
30.11.2013 10:05 2,7 C 0,0 C 0,0 C 84 % 1016,5 hPa 0,0 l/m 0,0 km/h (0 Bft) N-NW 340 0 min 0,000 mm 0 W/m 0,3 C 2,7 C 0,0 km/h (0 Bft) 0,00 %
30.11.2013 10:10 2,7 C 0,0 C 0,0 C 84 % 1016,5 hPa 0,0 l/m 1,8 km/h (1 Bft) W-SW 255 0 min 0,000 mm 0 W/m 0,3 C 2,7 C 1,8 km/h (1 Bft) 0,00 %
30.11.2013 10:15 2,9 C 0,0 C 0,0 C 84 % 1017,5 hPa 0,0 l/m 0,0 km/h (0 Bft) O-SO 115 0 min 0,000 mm 0 W/m 0,5 C 2,9 C 0,0 km/h (0 Bft) 0,00 %
30.11.2013 10:16 3,0 C 0,0 C 0,0 C 84 % 1017,5 hPa 0,0 l/m 0,0 km/h (0 Bft) W-NW 285 0 min 0,000 mm 0 W/m 0,6 C 3,0 C 0,0 km/h (0 Bft) 0,00 %
30.11.2013 10:21 2,9 C 0,0 C 0,0 C 84 % 1017,5 hPa 0,0 l/m 0,0 km/h (0 Bft) O-SO 110 0 min 0,000 mm 0 W/m 0,5 C 2,9 C 0,0 km/h (0 Bft) 0,00 %
30.11.2013 10:24 2,8 C 0,0 C 0,0 C 84 % 1017,5 hPa 0,0 l/m 4,5 km/h (1 Bft) S 180 0 min 0,000 mm 0 W/m 0,4 C 2,8 C 4,5 km/h (1 Bft) 0,00 %
30.11.2013 10:25 2,8 C 0,0 C 0,0 C 84 % 1017,5 hPa 0,0 l/m 4,5 km/h (1 Bft) S 180 0 min 0,000 mm 0 W/m 0,4 C 2,8 C 4,5 km/h (1 Bft) 0,00 %
30.11.2013 10:30 2,8 C 0,0 C 0,0 C 85 % 1017,5 hPa 0,0 l/m 3,0 km/h (1 Bft) S-SW 200 0 min 0,000 mm 0 W/m 0,5 C 2,8 C 3,0 km/h (1 Bft) 0,00 %
30.11.2013 10:35 3,0 C 0,0 C 0,0 C 85 % 1017,5 hPa 0,0 l/m 4,8 km/h (1 Bft) SW 220 0 min 0,000 mm 0 W/m 0,7 C 1,9 C 4,8 km/h (1 Bft) 0,00 %
30.11.2013 10:40 3,7 C 0,0 C 0,0 C 84 % 1017,5 hPa 0,0 l/m 4,5 km/h (1 Bft) W-SW 255 0 min 0,000 mm 0 W/m 1,3 C 3,7 C 4,5 km/h (1 Bft) 0,00 %
30.11.2013 10:45 3,9 C 0,0 C 0,0 C 83 % 1017,5 hPa 0,0 l/m 5,7 km/h (1 Bft) N-NW 345 0 min 0,000 mm 0 W/m 1,3 C 2,6 C 5,7 km/h (1 Bft) 0,00 %
30.11.2013 10:50 4,5 C 0,0 C 0,0 C 82 % 1017,5 hPa 0,0 l/m 3,3 km/h (1 Bft) W-NW 295 0 min 0,000 mm 0 W/m 1,7 C 4,5 C 3,3 km/h (1 Bft) 0,00 %
30.11.2013 10:55 4,2 C 0,0 C 0,0 C 82 % 1017,5 hPa 0,0 l/m 5,7 km/h (1 Bft) S 170 0 min 0,000 mm 0 W/m 1,4 C 2,9 C 5,7 km/h (1 Bft) 0,00 %
30.11.2013 11:00 4,0 C 0,0 C 0,0 C 82 % 1017,5 hPa 0,0 l/m 2,7 km/h (1 Bft) SW 235 0 min 0,000 mm 0 W/m 1,2 C 4,0 C 2,7 km/h (1 Bft) 0,00 %
30.11.2013 11:05 3,9 C 0,0 C 0,0 C 82 % 1017,5 hPa 0,0 l/m 0,0 km/h (0 Bft) W-SW 250 0 min 0,000 mm 0 W/m 1,1 C 3,9 C 0,0 km/h (0 Bft) 0,00 %
30.11.2013 11:10 3,8 C 0,0 C 0,0 C 82 % 1017,5 hPa 0,0 l/m 2,4 km/h (1 Bft) W 280 0 min 0,000 mm 0 W/m 1,0 C 3,8 C 2,4 km/h (1 Bft) 0,00 %
30.11.2013 11:15 3,9 C 0,0 C 0,0 C 82 % 1017,5 hPa 0,0 l/m 3,0 km/h (1 Bft) S 185 0 min 0,000 mm 0 W/m 1,1 C 3,9 C 3,0 km/h (1 Bft) 0,00 %
30.11.2013 11:20 4,0 C 0,0 C 0,0 C 82 % 1017,5 hPa 0,0 l/m 5,1 km/h (1 Bft) S-SW 200 0 min 0,000 mm 0 W/m 1,2 C 2,9 C 5,1 km/h (1 Bft) 0,00 %
30.11.2013 11:25 4,0 C 0,0 C 0,0 C 82 % 1017,5 hPa 0,0 l/m 5,1 km/h (1 Bft) W-SW 240 0 min 0,000 mm 0 W/m 1,2 C 2,9 C 5,1 km/h (1 Bft) 0,00 %
30.11.2013 11:30 4,1 C 0,0 C 0,0 C 82 % 1017,5 hPa 0,0 l/m 3,3 km/h (1 Bft) W-NW 295 0 min 0,000 mm 0 W/m 1,3 C 4,1 C 3,3 km/h (1 Bft) 0,00 %
30.11.2013 11:35 4,3 C 0,0 C 0,0 C 81 % 1017,5 hPa 0,0 l/m 5,4 km/h (1 Bft) W 265 0 min 0,000 mm 0 W/m 1,3 C 3,1 C 5,4 km/h (1 Bft) 0,00 %
30.11.2013 11:40 4,4 C 0,0 C 0,0 C 81 % 1017,5 hPa 0,0 l/m 2,4 km/h (1 Bft) SW 215 0 min 0,000 mm 0 W/m 1,4 C 4,4 C 2,4 km/h (1 Bft) 0,00 %
30.11.2013 11:45 4,2 C 0,0 C 0,0 C 81 % 1017,5 hPa 0,0 l/m 4,5 km/h (1 Bft) NW 305 0 min 0,000 mm 0 W/m 1,2 C 4,2 C 4,5 km/h (1 Bft) 0,00 %
30.11.2013 11:50 4,0 C 0,0 C 0,0 C 81 % 1017,5 hPa 0,0 l/m 6,1 km/h (2 Bft) S-SW 200 0 min 0,000 mm 0 W/m 1,0 C 2,5 C 6,1 km/h (2 Bft) 0,00 %
30.11.2013 11:55 4,1 C 0,0 C 0,0 C 81 % 1017,5 hPa 0,0 l/m 4,2 km/h (1 Bft) NW 320 0 min 0,000 mm 0 W/m 1,1 C 4,1 C 4,2 km/h (1 Bft) 0,00 %
30.11.2013 12:00 4,3 C 0,0 C 0,0 C 81 % 1017,5 hPa 0,0 l/m 3,0 km/h (1 Bft) SW 235 0 min 0,000 mm 0 W/m 1,3 C 4,3 C 3,0 km/h (1 Bft) 0,00 %
30.11.2013 12:05 4,4 C 0,0 C 0,0 C 81 % 1017,5 hPa 0,0 l/m 4,2 km/h (1 Bft) W 260 0 min 0,000 mm 0 W/m 1,4 C 4,4 C 4,2 km/h (1 Bft) 0,00 %
30.11.2013 12:10 4,6 C 0,0 C 0,0 C 80 % 1017,5 hPa 0,0 l/m 4,8 km/h (1 Bft) W-NW 300 0 min 0,000 mm 0 W/m 1,5 C 3,7 C 4,8 km/h (1 Bft) 0,00 %
30.11.2013 12:15 4,8 C 0,0 C 0,0 C 80 % 1017,5 hPa 0,0 l/m 3,6 km/h (1 Bft) SW 215 0 min 0,000 mm 0 W/m 1,6 C 4,8 C 3,6 km/h (1 Bft) 0,00 %
30.11.2013 12:20 4,7 C 0,0 C 0,0 C 80 % 1017,5 hPa 0,0 l/m 3,9 km/h (1 Bft) SW 235 0 min 0,000 mm 0 W/m 1,6 C 4,7 C 3,9 km/h (1 Bft) 0,00 %
30.11.2013 12:25 4,5 C 0,0 C 0,0 C 80 % 1017,5 hPa 0,0 l/m 6,1 km/h (2 Bft) W-NW 290 0 min 0,000 mm 0 W/m 1,4 C 3,1 C 6,1 km/h (2 Bft) 0,00 %
30.11.2013 12:30 4,4 C 0,0 C 0,0 C 79 % 1018,5 hPa 0,0 l/m 6,1 km/h (2 Bft) W 260 0 min 0,000 mm 0 W/m 1,1 C 3,0 C 6,1 km/h (2 Bft) 0,00 %
30.11.2013 12:35 4,4 C 0,0 C 0,0 C 78 % 1018,5 hPa 0,0 l/m 4,8 km/h (1 Bft) W-SW 240 0 min 0,000 mm 0 W/m 0,9 C 3,5 C 4,8 km/h (1 Bft) 0,00 %
30.11.2013 12:40 4,6 C 0,0 C 0,0 C 78 % 1018,5 hPa 0,0 l/m 3,6 km/h (1 Bft) W-NW 295 0 min 0,000 mm 0 W/m 1,1 C 4,6 C 3,6 km/h (1 Bft) 0,00 %
30.11.2013 12:45 4,7 C 0,0 C 0,0 C 78 % 1017,5 hPa 0,0 l/m 2,7 km/h (1 Bft) W 275 0 min 0,000 mm 0 W/m 1,2 C 4,7 C 2,7 km/h (1 Bft) 0,00 %
30.11.2013 12:50 4,7 C 0,0 C 0,0 C 78 % 1017,5 hPa 0,0 l/m 0,6 km/h (0 Bft) S 185 0 min 0,000 mm 0 W/m 1,2 C 4,7 C 0,6 km/h (0 Bft) 0,00 %
30.11.2013 12:55 4,7 C 0,0 C 0,0 C 79 % 1017,5 hPa 0,0 l/m 3,3 km/h (1 Bft) W-SW 240 0 min 0,000 mm 0 W/m 1,4 C 4,7 C 3,3 km/h (1 Bft) 0,00 %
30.11.2013 13:00 4,4 C 0,0 C 0,0 C 80 % 1017,5 hPa 0,0 l/m 3,0 km/h (1 Bft) W 260 0 min 0,000 mm 0 W/m 1,3 C 4,4 C 3,0 km/h (1 Bft) 0,00 %
30.11.2013 13:05 4,4 C 0,0 C 0,0 C 80 % 1017,5 hPa 0,0 l/m 3,9 km/h (1 Bft) W 275 0 min 0,000 mm 0 W/m 1,3 C 4,4 C 3,9 km/h (1 Bft) 0,00 %
30.11.2013 13:10 4,5 C 0,0 C 0,0 C 81 % 1017,5 hPa 0,0 l/m 4,8 km/h (1 Bft) W 270 0 min 0,000 mm 0 W/m 1,5 C 3,6 C 4,8 km/h (1 Bft) 0,00 %
30.11.2013 13:15 4,6 C 0,0 C 0,0 C 81 % 1018,5 hPa 0,0 l/m 0,6 km/h (0 Bft) NW 305 0 min 0,000 mm 0 W/m 1,6 C 4,6 C 0,6 km/h (0 Bft) 0,00 %
30.11.2013 13:20 4,6 C 0,0 C 0,0 C 81 % 1018,5 hPa 0,0 l/m 4,8 km/h (1 Bft) W 270 0 min 0,000 mm 0 W/m 1,6 C 3,7 C 4,8 km/h (1 Bft) 0,00 %
30.11.2013 13:25 4,5 C 0,0 C 0,0 C 79 % 1018,5 hPa 0,0 l/m 8,5 km/h (2 Bft) W-NW 285 0 min 0,000 mm 0 W/m 1,2 C 2,4 C 8,5 km/h (2 Bft) 0,00 %
30.11.2013 13:30 4,7 C 0,0 C 0,0 C 79 % 1018,5 hPa 0,0 l/m 1,8 km/h (1 Bft) N-NW 335 0 min 0,000 mm 0 W/m 1,4 C 4,7 C 1,8 km/h (1 Bft) 0,00 %
30.11.2013 13:35 4,7 C 0,0 C 0,0 C 78 % 1018,5 hPa 0,0 l/m 7,3 km/h (2 Bft) S 170 0 min 0,000 mm 0 W/m 1,2 C 3,0 C 7,3 km/h (2 Bft) 0,00 %
30.11.2013 13:40 4,8 C 0,0 C 0,0 C 78 % 1018,5 hPa 0,0 l/m 3,0 km/h (1 Bft) NW 325 0 min 0,000 mm 0 W/m 1,3 C 4,8 C 3,0 km/h (1 Bft) 0,00 %
30.11.2013 13:45 4,9 C 0,0 C 0,0 C 76 % 1018,5 hPa 0,0 l/m 0,0 km/h (0 Bft) W 275 0 min 0,000 mm 0 W/m 1,0 C 4,9 C 0,0 km/h (0 Bft) 0,00 %
30.11.2013 13:50 4,8 C 0,0 C 0,0 C 76 % 1018,5 hPa 0,0 l/m 7,0 km/h (2 Bft) SW 225 0 min 0,000 mm 0 W/m 0,9 C 3,2 C 7,0 km/h (2 Bft) 0,00 %
30.11.2013 13:55 4,9 C 0,0 C 0,0 C 75 % 1018,5 hPa 0,0 l/m 2,7 km/h (1 Bft) NW 305 0 min 0,000 mm 0 W/m 0,8 C 4,9 C 2,7 km/h (1 Bft) 0,00 %
30.11.2013 14:00 5,1 C 0,0 C 0,0 C 75 % 1018,5 hPa 0,0 l/m 2,4 km/h (1 Bft) N-NW 335 0 min 0,000 mm 0 W/m 1,0 C 5,1 C 2,4 km/h (1 Bft) 0,00 %
30.11.2013 14:05 5,8 C 0,0 C 0,0 C 77 % 1018,5 hPa 0,0 l/m 0,6 km/h (0 Bft) S-SO 155 0 min 0,000 mm 0 W/m 2,1 C 5,8 C 0,6 km/h (0 Bft) 0,00 %
30.11.2013 14:10 5,4 C 0,0 C 0,0 C 77 % 1018,5 hPa 0,0 l/m 5,1 km/h (1 Bft) SW 215 0 min 0,000 mm 0 W/m 1,7 C 4,5 C 5,1 km/h (1 Bft) 0,00 %
30.11.2013 14:15 5,5 C 0,0 C 0,0 C 78 % 1017,5 hPa 0,0 l/m 3,0 km/h (1 Bft) W-NW 300 0 min 0,000 mm 0 W/m 2,0 C 5,5 C 3,0 km/h (1 Bft) 0,00 %
30.11.2013 14:20 6,0 C 0,0 C 0,0 C 76 % 1017,5 hPa 0,0 l/m 4,2 km/h (1 Bft) S-SO 150 0 min 0,000 mm 0 W/m 2,1 C 6,0 C 4,2 km/h (1 Bft) 0,00 %
30.11.2013 14:25 6,4 C 0,0 C 0,0 C 75 % 1017,5 hPa 0,0 l/m 5,7 km/h (1 Bft) W-SW 250 0 min 0,000 mm 0 W/m 2,3 C 5,4 C 5,7 km/h (1 Bft) 0,00 %
30.11.2013 14:30 6,3 C 0,0 C 0,0 C 75 % 1018,5 hPa 0,0 l/m 3,9 km/h (1 Bft) S-SO 160 0 min 0,000 mm 0 W/m 2,2 C 6,3 C 3,9 km/h (1 Bft) 0,00 %
30.11.2013 14:35 5,7 C 0,0 C 0,0 C 75 % 1018,5 hPa 0,0 l/m 5,7 km/h (1 Bft) SW 235 0 min 0,000 mm 0 W/m 1,6 C 4,6 C 5,7 km/h (1 Bft) 0,00 %
30.11.2013 14:40 5,4 C 0,0 C 0,0 C 76 % 1018,5 hPa 0,0 l/m 7,3 km/h (2 Bft) S-SO 150 0 min 0,000 mm 0 W/m 1,5 C 3,8 C 7,3 km/h (2 Bft) 0,00 %
30.11.2013 14:45 5,4 C 0,0 C 0,0 C 77 % 1018,5 hPa 0,0 l/m 1,5 km/h (1 Bft) SW 230 0 min 0,000 mm 0 W/m 1,7 C 5,4 C 1,5 km/h (1 Bft) 0,00 %
30.11.2013 14:50 5,2 C 0,0 C 0,0 C 78 % 1018,5 hPa 0,0 l/m 4,8 km/h (1 Bft) W 260 0 min 0,000 mm 0 W/m 1,7 C 4,4 C 4,8 km/h (1 Bft) 0,00 %
30.11.2013 14:55 5,0 C 0,0 C 0,0 C 78 % 1018,5 hPa 0,0 l/m 3,9 km/h (1 Bft) S 180 0 min 0,000 mm 0 W/m 1,5 C 5,0 C 3,9 km/h (1 Bft) 0,00 %
30.11.2013 15:00 4,8 C 0,0 C 0,0 C 79 % 1018,5 hPa 0,0 l/m 3,9 km/h (1 Bft) SW 225 0 min 0,000 mm 0 W/m 1,5 C 4,8 C 3,9 km/h (1 Bft) 0,00 %
30.11.2013 15:05 4,9 C 0,0 C 0,0 C 79 % 1018,5 hPa 0,0 l/m 1,2 km/h (1 Bft) W-SW 240 0 min 0,000 mm 0 W/m 1,6 C 4,9 C 1,2 km/h (1 Bft) 0,00 %
30.11.2013 15:10 4,8 C 0,0 C 0,0 C 79 % 1018,5 hPa 0,0 l/m 2,1 km/h (1 Bft) W-SW 255 0 min 0,000 mm 0 W/m 1,5 C 4,8 C 2,1 km/h (1 Bft) 0,00 %
30.11.2013 15:15 4,6 C 0,0 C 0,0 C 80 % 1019,5 hPa 0,0 l/m 4,2 km/h (1 Bft) SW 220 0 min 0,000 mm 0 W/m 1,5 C 4,6 C 4,2 km/h (1 Bft) 0,00 %
30.11.2013 15:20 4,6 C 0,0 C 0,0 C 81 % 1019,5 hPa 0,0 l/m 2,1 km/h (1 Bft) W 280 0 min 0,000 mm 0 W/m 1,6 C 4,6 C 2,1 km/h (1 Bft) 0,00 %
30.11.2013 15:25 4,6 C 0,0 C 0,0 C 81 % 1019,5 hPa 0,0 l/m 1,2 km/h (1 Bft) W 275 0 min 0,000 mm 0 W/m 1,6 C 4,6 C 1,2 km/h (1 Bft) 0,00 %
30.11.2013 15:30 4,6 C 0,0 C 0,0 C 81 % 1019,5 hPa 0,0 l/m 3,9 km/h (1 Bft) W-NW 290 0 min 0,000 mm 0 W/m 1,6 C 4,6 C 3,9 km/h (1 Bft) 0,00 %
30.11.2013 15:35 4,5 C 0,0 C 0,0 C 81 % 1019,5 hPa 0,0 l/m 2,7 km/h (1 Bft) W 260 0 min 0,000 mm 0 W/m 1,5 C 4,5 C 2,7 km/h (1 Bft) 0,00 %
30.11.2013 15:40 4,5 C 0,0 C 0,0 C 82 % 1019,5 hPa 0,0 l/m 3,6 km/h (1 Bft) SW 225 0 min 0,000 mm 0 W/m 1,7 C 4,5 C 3,6 km/h (1 Bft) 0,00 %
30.11.2013 15:45 4,5 C 0,0 C 0,0 C 82 % 1019,5 hPa 0,0 l/m 0,0 km/h (0 Bft) W 260 0 min 0,000 mm 0 W/m 1,7 C 4,5 C 0,0 km/h (0 Bft) 0,00 %
30.11.2013 15:50 4,4 C 0,0 C 0,0 C 82 % 1019,5 hPa 0,0 l/m 2,7 km/h (1 Bft) W 270 0 min 0,000 mm 0 W/m 1,6 C 4,4 C 2,7 km/h (1 Bft) 0,00 %
30.11.2013 15:55 4,3 C 0,0 C 0,0 C 82 % 1019,5 hPa 0,0 l/m 0,0 km/h (0 Bft) W 260 0 min 0,000 mm 0 W/m 1,5 C 4,3 C 0,0 km/h (0 Bft) 0,00 %
30.11.2013 16:00 4,3 C 0,0 C 0,0 C 83 % 1019,5 hPa 0,0 l/m 0,0 km/h (0 Bft) NW 315 0 min 0,000 mm 0 W/m 1,7 C 4,3 C 0,0 km/h (0 Bft) 0,00 %
30.11.2013 16:05 4,2 C 0,0 C 0,0 C 83 % 1019,5 hPa 0,0 l/m 0,0 km/h (0 Bft) W 260 0 min 0,000 mm 0 W/m 1,6 C 4,2 C 0,0 km/h (0 Bft) 0,00 %
30.11.2013 16:10 4,2 C 0,0 C 0,0 C 83 % 1019,5 hPa 0,0 l/m 0,0 km/h (0 Bft) W 265 0 min 0,000 mm 0 W/m 1,6 C 4,2 C 0,0 km/h (0 Bft) 0,00 %
30.11.2013 16:15 4,1 C 0,0 C 0,0 C 83 % 1019,5 hPa 0,0 l/m 0,0 km/h (0 Bft) N-NW 330 0 min 0,000 mm 0 W/m 1,5 C 4,1 C 0,0 km/h (0 Bft) 0,00 %
30.11.2013 16:20 4,0 C 0,0 C 0,0 C 84 % 1019,5 hPa 0,0 l/m 0,0 km/h (0 Bft) W 270 0 min 0,000 mm 0 W/m 1,5 C 4,0 C 0,0 km/h (0 Bft) 0,00 %
30.11.2013 16:25 4,0 C 0,0 C 0,0 C 84 % 1019,5 hPa 0,0 l/m 0,0 km/h (0 Bft) W 270 0 min 0,000 mm 0 W/m 1,5 C 4,0 C 0,0 km/h (0 Bft) 0,00 %
30.11.2013 16:30 4,0 C 0,0 C 0,0 C 84 % 1020,5 hPa 0,0 l/m 0,0 km/h (0 Bft) NW 315 0 min 0,000 mm 0 W/m 1,5 C 4,0 C 0,0 km/h (0 Bft) 0,00 %
30.11.2013 16:32 3,9 C 0,0 C 0,0 C 84 % 1020,5 hPa 0,0 l/m 0,0 km/h (0 Bft) SW 230 0 min 0,000 mm 0 W/m 1,4 C 3,9 C 0,0 km/h (0 Bft) 0,00 %
30.11.2013 16:37 4,0 C 0,0 C 0,0 C 84 % 1020,5 hPa 0,0 l/m 0,0 km/h (0 Bft) SW 220 0 min 0,000 mm 0 W/m 1,5 C 4,0 C 0,0 km/h (0 Bft) 0,00 %
30.11.2013 16:42 4,0 C 0,0 C 0,0 C 84 % 1020,5 hPa 0,0 l/m 0,0 km/h (0 Bft) S-SW 210 0 min 0,000 mm 0 W/m 1,5 C 4,0 C 0,0 km/h (0 Bft) 0,00 %
30.11.2013 16:47 3,9 C 0,0 C 0,0 C 84 % 1020,5 hPa 0,0 l/m 0,0 km/h (0 Bft) S-SW 200 0 min 0,000 mm 0 W/m 1,4 C 3,9 C 0,0 km/h (0 Bft) 0,00 %
30.11.2013 16:52 3,9 C 0,0 C 0,0 C 84 % 1020,5 hPa 0,0 l/m 0,0 km/h (0 Bft) NW 305 0 min 0,000 mm 0 W/m 1,4 C 3,9 C 0,0 km/h (0 Bft) 0,00 %
30.11.2013 16:57 3,8 C 0,0 C 0,0 C 85 % 1020,5 hPa 0,0 l/m 0,0 km/h (0 Bft) W 275 0 min 0,000 mm 0 W/m 1,5 C 3,8 C 0,0 km/h (0 Bft) 0,00 %
30.11.2013 17:01 3,8 C 0,0 C 0,0 C 85 % 1020,5 hPa 0,0 l/m 0,0 km/h (0 Bft) SW 220 0 min 0,000 mm 0 W/m 1,5 C 3,8 C 0,0 km/h (0 Bft) 0,00 %
30.11.2013 17:05 3,8 C 0,0 C 0,0 C 85 % 1020,5 hPa 0,0 l/m 0,0 km/h (0 Bft) SW 225 0 min 0,000 mm 0 W/m 1,5 C 3,8 C 0,0 km/h (0 Bft) 0,00 %
30.11.2013 17:10 3,8 C 0,0 C 0,0 C 85 % 1020,5 hPa 0,0 l/m 0,0 km/h (0 Bft) W 260 0 min 0,000 mm 0 W/m 1,5 C 3,8 C 0,0 km/h (0 Bft) 0,00 %
30.11.2013 17:15 3,7 C 0,0 C 0,0 C 85 % 1020,5 hPa 0,0 l/m 0,0 km/h (0 Bft) W-SW 255 0 min 0,000 mm 0 W/m 1,4 C 3,7 C 0,0 km/h (0 Bft) 0,00 %
30.11.2013 17:20 3,6 C 0,0 C 0,0 C 85 % 1020,5 hPa 0,0 l/m 0,0 km/h (0 Bft) N-NW 340 0 min 0,000 mm 0 W/m 1,3 C 3,6 C 0,0 km/h (0 Bft) 0,00 %
30.11.2013 17:25 3,6 C 0,0 C 0,0 C 85 % 1020,5 hPa 0,0 l/m 0,0 km/h (0 Bft) W-NW 290 0 min 0,000 mm 0 W/m 1,3 C 3,6 C 0,0 km/h (0 Bft) 0,00 %
30.11.2013 17:30 3,6 C 0,0 C 0,0 C 85 % 1021,5 hPa 0,0 l/m 0,0 km/h (0 Bft) W 265 0 min 0,000 mm 0 W/m 1,3 C 3,6 C 0,0 km/h (0 Bft) 0,00 %
30.11.2013 17:35 3,6 C 0,0 C 0,0 C 86 % 1021,5 hPa 0,0 l/m 0,0 km/h (0 Bft) N 355 0 min 0,000 mm 0 W/m 1,5 C 3,6 C 0,0 km/h (0 Bft) 0,00 %
30.11.2013 17:40 3,5 C 0,0 C 0,0 C 86 % 1021,5 hPa 0,0 l/m 0,0 km/h (0 Bft) W-NW 295 0 min 0,000 mm 0 W/m 1,4 C 3,5 C 0,0 km/h (0 Bft) 0,00 %
30.11.2013 17:45 3,4 C 0,0 C 0,0 C 86 % 1021,5 hPa 0,0 l/m 0,0 km/h (0 Bft) NW 320 0 min 0,000 mm 0 W/m 1,3 C 3,4 C 0,0 km/h (0 Bft) 0,00 %
30.11.2013 17:50 3,4 C 0,0 C 0,0 C 86 % 1021,5 hPa 0,0 l/m 0,0 km/h (0 Bft) NW 315 0 min 0,000 mm 0 W/m 1,3 C 3,4 C 0,0 km/h (0 Bft) 0,00 %
30.11.2013 17:55 3,4 C 0,0 C 0,0 C 86 % 1021,5 hPa 0,0 l/m 0,0 km/h (0 Bft) NW 305 0 min 0,000 mm 0 W/m 1,3 C 3,4 C 0,0 km/h (0 Bft) 0,00 %
30.11.2013 18:00 3,4 C 0,0 C 0,0 C 87 % 1021,5 hPa 0,0 l/m 0,0 km/h (0 Bft) O-NO 70 0 min 0,000 mm 0 W/m 1,4 C 3,4 C 0,0 km/h (0 Bft) 0,00 %
30.11.2013 18:05 3,4 C 0,0 C 0,0 C 87 % 1021,5 hPa 0,0 l/m 0,0 km/h (0 Bft) N-NO 25 0 min 0,000 mm 0 W/m 1,4 C 3,4 C 0,0 km/h (0 Bft) 0,00 %
30.11.2013 18:10 3,4 C 0,0 C 0,0 C 87 % 1021,5 hPa 0,0 l/m 0,0 km/h (0 Bft) NO 55 0 min 0,000 mm 0 W/m 1,4 C 3,4 C 0,0 km/h (0 Bft) 0,00 %
30.11.2013 18:15 3,3 C 0,0 C 0,0 C 87 % 1022,5 hPa 0,3 l/m 0,0 km/h (0 Bft) NW 315 0 min 0,000 mm 0 W/m 1,3 C 3,3 C 0,0 km/h (0 Bft) 0,00 %
30.11.2013 18:20 3,3 C 0,0 C 0,0 C 87 % 1022,5 hPa 0,0 l/m 0,0 km/h (0 Bft) W 270 0 min 0,000 mm 0 W/m 1,3 C 3,3 C 0,0 km/h (0 Bft) 0,00 %
30.11.2013 18:25 3,3 C 0,0 C 0,0 C 87 % 1022,5 hPa 0,0 l/m 0,0 km/h (0 Bft) NW 310 0 min 0,000 mm 0 W/m 1,3 C 3,3 C 0,0 km/h (0 Bft) 0,00 %
30.11.2013 18:30 3,3 C 0,0 C 0,0 C 87 % 1021,5 hPa 0,0 l/m 0,0 km/h (0 Bft) N 350 0 min 0,000 mm 0 W/m 1,3 C 3,3 C 0,0 km/h (0 Bft) 0,00 %
30.11.2013 18:35 3,3 C 0,0 C 0,0 C 87 % 1021,5 hPa 0,0 l/m 0,0 km/h (0 Bft) NW 315 0 min 0,000 mm 0 W/m 1,3 C 3,3 C 0,0 km/h (0 Bft) 0,00 %
30.11.2013 18:40 3,3 C 0,0 C 0,0 C 87 % 1021,5 hPa 0,0 l/m 0,0 km/h (0 Bft) NW 320 0 min 0,000 mm 0 W/m 1,3 C 3,3 C 0,0 km/h (0 Bft) 0,00 %
30.11.2013 18:45 3,3 C 0,0 C 0,0 C 87 % 1021,5 hPa 0,0 l/m 0,0 km/h (0 Bft) N 350 0 min 0,000 mm 0 W/m 1,3 C 3,3 C 0,0 km/h (0 Bft) 0,00 %
30.11.2013 18:50 3,3 C 0,0 C 0,0 C 87 % 1021,5 hPa 0,0 l/m 0,0 km/h (0 Bft) N-NW 345 0 min 0,000 mm 0 W/m 1,3 C 3,3 C 0,0 km/h (0 Bft) 0,00 %
30.11.2013 18:55 3,2 C 0,0 C 0,0 C 87 % 1021,5 hPa 0,0 l/m 0,0 km/h (0 Bft) N-NW 330 0 min 0,000 mm 0 W/m 1,2 C 3,2 C 0,0 km/h (0 Bft) 0,00 %
30.11.2013 19:00 3,2 C 0,0 C 0,0 C 87 % 1022,5 hPa 0,0 l/m 0,0 km/h (0 Bft) N-NW 340 0 min 0,000 mm 0 W/m 1,2 C 3,2 C 0,0 km/h (0 Bft) 0,00 %
30.11.2013 19:05 3,2 C 0,0 C 0,0 C 87 % 1022,5 hPa 0,0 l/m 0,0 km/h (0 Bft) N-NO 30 0 min 0,000 mm 0 W/m 1,2 C 3,2 C 0,0 km/h (0 Bft) 0,00 %
30.11.2013 19:10 3,1 C 0,0 C 0,0 C 87 % 1022,5 hPa 0,0 l/m 0,0 km/h (0 Bft) NW 310 0 min 0,000 mm 0 W/m 1,2 C 3,1 C 0,0 km/h (0 Bft) 0,00 %
30.11.2013 19:15 3,1 C 0,0 C 0,0 C 87 % 1022,5 hPa 0,0 l/m 0,0 km/h (0 Bft) N-NW 340 0 min 0,000 mm 0 W/m 1,2 C 3,1 C 0,0 km/h (0 Bft) 0,00 %
30.11.2013 19:20 3,1 C 0,0 C 0,0 C 87 % 1022,5 hPa 0,0 l/m 0,0 km/h (0 Bft) N-NO 20 0 min 0,000 mm 0 W/m 1,2 C 3,1 C 0,0 km/h (0 Bft) 0,00 %
30.11.2013 19:25 3,3 C 0,0 C 0,0 C 87 % 1022,5 hPa 0,0 l/m 6,7 km/h (2 Bft) W 260 0 min 0,000 mm 0 W/m 1,3 C 1,5 C 6,7 km/h (2 Bft) 0,00 %
30.11.2013 19:30 3,3 C 0,0 C 0,0 C 87 % 1022,5 hPa 0,0 l/m 6,1 km/h (2 Bft) N-NW 335 0 min 0,000 mm 0 W/m 1,3 C 1,7 C 6,1 km/h (2 Bft) 0,00 %
30.11.2013 19:35 3,4 C 0,0 C 0,0 C 87 % 1022,5 hPa 0,0 l/m 6,1 km/h (2 Bft) N-NW 340 0 min 0,000 mm 0 W/m 1,4 C 1,8 C 6,1 km/h (2 Bft) 0,00 %
30.11.2013 19:40 3,5 C 0,0 C 0,0 C 86 % 1022,5 hPa 0,0 l/m 5,4 km/h (1 Bft) W-NW 295 0 min 0,000 mm 0 W/m 1,4 C 2,2 C 5,4 km/h (1 Bft) 0,00 %
30.11.2013 19:45 3,6 C 0,0 C 0,0 C 85 % 1022,5 hPa 0,0 l/m 7,9 km/h (2 Bft) N-NW 335 0 min 0,000 mm 0 W/m 1,3 C 1,5 C 7,9 km/h (2 Bft) 0,00 %
30.11.2013 19:50 3,5 C 0,0 C 0,0 C 85 % 1022,5 hPa 0,0 l/m 10,9 km/h (2 Bft) N-NW 340 0 min 0,000 mm 0 W/m 1,2 C 0,7 C 10,9 km/h (2 Bft) 0,00 %
30.11.2013 19:55 3,6 C 0,0 C 0,0 C 85 % 1022,5 hPa 0,0 l/m 6,4 km/h (2 Bft) S-SW 210 0 min 0,000 mm 0 W/m 1,3 C 2,0 C 6,4 km/h (2 Bft) 0,00 %
30.11.2013 20:00 3,6 C 0,0 C 0,0 C 85 % 1022,5 hPa 0,0 l/m 4,8 km/h (1 Bft) NW 305 0 min 0,000 mm 0 W/m 1,3 C 2,6 C 4,8 km/h (1 Bft) 0,00 %
30.11.2013 20:05 3,6 C 0,0 C 0,0 C 85 % 1022,5 hPa 0,0 l/m 6,1 km/h (2 Bft) W-NW 290 0 min 0,000 mm 0 W/m 1,3 C 2,1 C 6,1 km/h (2 Bft) 0,00 %
30.11.2013 20:10 3,5 C 0,0 C 0,0 C 85 % 1022,5 hPa 0,0 l/m 5,4 km/h (1 Bft) N-NO 25 0 min 0,000 mm 0 W/m 1,2 C 2,2 C 5,4 km/h (1 Bft) 0,00 %
30.11.2013 20:15 3,4 C 0,0 C 0,0 C 85 % 1023,5 hPa 0,0 l/m 0,9 km/h (0 Bft) O 85 0 min 0,000 mm 0 W/m 1,1 C 3,4 C 0,9 km/h (0 Bft) 0,00 %
30.11.2013 20:20 3,1 C 0,0 C 0,0 C 84 % 1023,5 hPa 0,0 l/m 0,0 km/h (0 Bft) O 100 0 min 0,000 mm 0 W/m 0,7 C 3,1 C 0,0 km/h (0 Bft) 0,00 %
30.11.2013 20:25 2,9 C 0,0 C 0,0 C 85 % 1023,5 hPa 0,0 l/m 0,0 km/h (0 Bft) O 80 0 min 0,000 mm 0 W/m 0,6 C 2,9 C 0,0 km/h (0 Bft) 0,00 %
30.11.2013 20:30 2,7 C 0,0 C 0,0 C 85 % 1023,5 hPa 0,0 l/m 0,0 km/h (0 Bft) O-NO 65 0 min 0,000 mm 0 W/m 0,4 C 2,7 C 0,0 km/h (0 Bft) 0,00 %
30.11.2013 20:35 2,5 C 0,0 C 0,0 C 86 % 1023,5 hPa 0,0 l/m 0,0 km/h (0 Bft) N-NW 335 0 min 0,000 mm 0 W/m 0,4 C 2,5 C 0,0 km/h (0 Bft) 0,00 %
30.11.2013 20:40 2,5 C 0,0 C 0,0 C 86 % 1023,5 hPa 0,0 l/m 0,0 km/h (0 Bft) N 5 0 min 0,000 mm 0 W/m 0,4 C 2,5 C 0,0 km/h (0 Bft) 0,00 %
30.11.2013 20:45 2,3 C 0,0 C 0,0 C 86 % 1023,5 hPa 0,0 l/m 0,0 km/h (0 Bft) NW 320 0 min 0,000 mm 0 W/m 0,2 C 2,3 C 0,0 km/h (0 Bft) 0,00 %
30.11.2013 20:50 2,3 C 0,0 C 0,0 C 86 % 1023,5 hPa 0,0 l/m 0,0 km/h (0 Bft) N-NW 340 0 min 0,000 mm 0 W/m 0,2 C 2,3 C 0,0 km/h (0 Bft) 0,00 %
30.11.2013 20:55 2,2 C 0,0 C 0,0 C 86 % 1023,5 hPa 0,0 l/m 0,0 km/h (0 Bft) NW 320 0 min 0,000 mm 0 W/m 0,1 C 2,2 C 0,0 km/h (0 Bft) 0,00 %
30.11.2013 21:00 2,1 C 0,0 C 0,0 C 86 % 1023,5 hPa 0,0 l/m 0,0 km/h (0 Bft) NW 305 0 min 0,000 mm 0 W/m 0,0 C 2,1 C 0,0 km/h (0 Bft) 0,00 %
30.11.2013 21:05 2,0 C 0,0 C 0,0 C 86 % 1023,5 hPa 0,0 l/m 0,0 km/h (0 Bft) N 350 0 min 0,000 mm 0 W/m -0,1 C 2,0 C 0,0 km/h (0 Bft) 0,00 %
30.11.2013 21:10 1,8 C 0,0 C 0,0 C 87 % 1023,5 hPa 0,0 l/m 0,0 km/h (0 Bft) NW 315 0 min 0,000 mm 0 W/m -0,1 C 1,8 C 0,0 km/h (0 Bft) 0,00 %
30.11.2013 21:15 1,7 C 0,0 C 0,0 C 87 % 1023,5 hPa 0,0 l/m 2,4 km/h (1 Bft) SO 140 0 min 0,000 mm 0 W/m -0,2 C 1,7 C 2,4 km/h (1 Bft) 0,00 %
30.11.2013 21:20 1,4 C 0,0 C 0,0 C 87 % 1023,5 hPa 0,0 l/m 0,0 km/h (0 Bft) O 90 0 min 0,000 mm 0 W/m -0,5 C 1,4 C 0,0 km/h (0 Bft) 0,00 %
30.11.2013 21:25 1,3 C 0,0 C 0,0 C 87 % 1023,5 hPa 0,0 l/m 0,0 km/h (0 Bft) N-NO 30 0 min 0,000 mm 0 W/m -0,6 C 1,3 C 0,0 km/h (0 Bft) 0,00 %
30.11.2013 21:30 1,2 C 0,0 C 0,0 C 87 % 1023,5 hPa 0,0 l/m 0,0 km/h (0 Bft) N-NO 20 0 min 0,000 mm 0 W/m -0,7 C 1,2 C 0,0 km/h (0 Bft) 0,00 %
30.11.2013 21:35 1,0 C 0,0 C 0,0 C 87 % 1023,5 hPa 0,0 l/m 0,0 km/h (0 Bft) N-NO 25 0 min 0,000 mm 0 W/m -0,9 C 1,0 C 0,0 km/h (0 Bft) 0,00 %
30.11.2013 21:40 0,9 C 0,0 C 0,0 C 87 % 1023,5 hPa 0,0 l/m 0,0 km/h (0 Bft) NO 55 0 min 0,000 mm 0 W/m -1,0 C 0,9 C 0,0 km/h (0 Bft) 0,00 %
30.11.2013 21:45 0,8 C 0,0 C 0,0 C 88 % 1023,5 hPa 0,0 l/m 0,0 km/h (0 Bft) N 355 0 min 0,000 mm 0 W/m -1,0 C 0,8 C 0,0 km/h (0 Bft) 0,00 %
30.11.2013 21:50 0,9 C 0,0 C 0,0 C 88 % 1023,5 hPa 0,0 l/m 0,0 km/h (0 Bft) N-NW 345 0 min 0,000 mm 0 W/m -0,9 C 0,9 C 0,0 km/h (0 Bft) 0,00 %
30.11.2013 21:55 0,5 C 0,0 C 0,0 C 88 % 1023,5 hPa 0,0 l/m 0,0 km/h (0 Bft) NO 40 0 min 0,000 mm 0 W/m -1,3 C 0,5 C 0,0 km/h (0 Bft) 0,00 %
30.11.2013 22:00 0,3 C 0,0 C 0,0 C 88 % 1023,5 hPa 0,0 l/m 0,0 km/h (0 Bft) NO 50 0 min 0,000 mm 0 W/m -1,4 C 0,3 C 0,0 km/h (0 Bft) 0,00 %
30.11.2013 22:05 0,4 C 0,0 C 0,0 C 88 % 1023,5 hPa 0,0 l/m 0,0 km/h (0 Bft) NO 55 0 min 0,000 mm 0 W/m -1,3 C 0,4 C 0,0 km/h (0 Bft) 0,00 %
30.11.2013 22:10 0,4 C 0,0 C 0,0 C 88 % 1023,5 hPa 0,0 l/m 0,0 km/h (0 Bft) N-NO 15 0 min 0,000 mm 0 W/m -1,3 C 0,4 C 0,0 km/h (0 Bft) 0,00 %
30.11.2013 22:15 0,4 C 0,0 C 0,0 C 88 % 1024,5 hPa 0,0 l/m 0,0 km/h (0 Bft) O-SO 110 0 min 0,000 mm 0 W/m -1,3 C 0,4 C 0,0 km/h (0 Bft) 0,00 %
30.11.2013 22:20 0,9 C 0,0 C 0,0 C 89 % 1024,5 hPa 0,0 l/m 0,0 km/h (0 Bft) S-SW 210 0 min 0,000 mm 0 W/m -0,7 C 0,9 C 0,0 km/h (0 Bft) 0,00 %
30.11.2013 22:25 0,4 C 0,0 C 0,0 C 89 % 1024,5 hPa 0,0 l/m 0,0 km/h (0 Bft) N-NO 15 0 min 0,000 mm 0 W/m -1,2 C 0,4 C 0,0 km/h (0 Bft) 0,00 %
30.11.2013 22:30 0,5 C 0,0 C 0,0 C 89 % 1024,5 hPa 0,0 l/m 0,0 km/h (0 Bft) O-NO 65 0 min 0,000 mm 0 W/m -1,1 C 0,5 C 0,0 km/h (0 Bft) 0,00 %
30.11.2013 22:35 0,2 C 0,0 C 0,0 C 89 % 1024,5 hPa 0,0 l/m 0,0 km/h (0 Bft) N-NW 340 0 min 0,000 mm 0 W/m -1,4 C 0,2 C 0,0 km/h (0 Bft) 0,00 %
30.11.2013 22:40 0,0 C 0,0 C 0,0 C 89 % 1024,5 hPa 0,0 l/m 0,0 km/h (0 Bft) W-NW 295 0 min 0,000 mm 0 W/m -1,6 C 0,0 C 0,0 km/h (0 Bft) 0,00 %
30.11.2013 22:45 0,0 C 0,0 C 0,0 C 89 % 1024,5 hPa 0,0 l/m 0,0 km/h (0 Bft) N 350 0 min 0,000 mm 0 W/m -1,6 C 0,0 C 0,0 km/h (0 Bft) 0,00 %
30.11.2013 22:50 0,0 C 0,0 C 0,0 C 89 % 1024,5 hPa 0,0 l/m 0,0 km/h (0 Bft) N-NW 340 0 min 0,000 mm 0 W/m -1,6 C 0,0 C 0,0 km/h (0 Bft) 0,00 %
30.11.2013 22:55 0,1 C 0,0 C 0,0 C 89 % 1024,5 hPa 0,0 l/m 0,0 km/h (0 Bft) N 5 0 min 0,000 mm 0 W/m -1,5 C 0,1 C 0,0 km/h (0 Bft) 0,00 %
30.11.2013 23:00 0,0 C 0,0 C 0,0 C 89 % 1025,5 hPa 0,0 l/m 0,0 km/h (0 Bft) SO 145 0 min 0,000 mm 0 W/m -1,6 C 0,0 C 0,0 km/h (0 Bft) 0,00 %
30.11.2013 23:05 0,0 C 0,0 C 0,0 C 89 % 1025,5 hPa 0,0 l/m 0,0 km/h (0 Bft) N-NO 15 0 min 0,000 mm 0 W/m -1,6 C 0,0 C 0,0 km/h (0 Bft) 0,00 %
30.11.2013 23:10 0,0 C 0,0 C 0,0 C 89 % 1025,5 hPa 0,0 l/m 0,0 km/h (0 Bft) N-NW 345 0 min 0,000 mm 0 W/m -1,6 C 0,0 C 0,0 km/h (0 Bft) 0,00 %
30.11.2013 23:15 0,0 C 0,0 C 0,0 C 89 % 1024,5 hPa 0,0 l/m 0,0 km/h (0 Bft) N 350 0 min 0,000 mm 0 W/m -1,6 C 0,0 C 0,0 km/h (0 Bft) 0,00 %
30.11.2013 23:20 0,4 C 0,0 C 0,0 C 89 % 1024,5 hPa 0,0 l/m 0,0 km/h (0 Bft) N-NW 335 0 min 0,000 mm 0 W/m -1,2 C 0,4 C 0,0 km/h (0 Bft) 0,00 %
30.11.2013 23:25 0,3 C 0,0 C 0,0 C 89 % 1024,5 hPa 0,0 l/m 0,0 km/h (0 Bft) W-SW 255 0 min 0,000 mm 0 W/m -1,3 C 0,3 C 0,0 km/h (0 Bft) 0,00 %
30.11.2013 23:30 0,4 C 0,0 C 0,0 C 89 % 1024,5 hPa 0,0 l/m 0,0 km/h (0 Bft) N 350 0 min 0,000 mm 0 W/m -1,2 C 0,4 C 0,0 km/h (0 Bft) 0,00 %
30.11.2013 23:35 0,4 C 0,0 C 0,0 C 89 % 1024,5 hPa 0,0 l/m 0,0 km/h (0 Bft) NW 320 0 min 0,000 mm 0 W/m -1,2 C 0,4 C 0,0 km/h (0 Bft) 0,00 %
30.11.2013 23:40 0,5 C 0,0 C 0,0 C 89 % 1024,5 hPa 0,0 l/m 0,0 km/h (0 Bft) N-NW 340 0 min 0,000 mm 0 W/m -1,1 C 0,5 C 0,0 km/h (0 Bft) 0,00 %
30.11.2013 23:45 0,9 C 0,0 C 0,0 C 88 % 1025,5 hPa 0,0 l/m 0,0 km/h (0 Bft) N-NO 20 0 min 0,000 mm 0 W/m -0,9 C 0,9 C 0,0 km/h (0 Bft) 0,00 %
30.11.2013 23:50 1,1 C 0,0 C 0,0 C 88 % 1025,5 hPa 0,0 l/m 0,0 km/h (0 Bft) N-NW 340 0 min 0,000 mm 0 W/m -0,7 C 1,1 C 0,0 km/h (0 Bft) 0,00 %
30.11.2013 23:55 1,2 C 0,0 C 0,0 C 88 % 1025,5 hPa 0,0 l/m 0,0 km/h (0 Bft) N-NO 20 0 min 0,000 mm 0 W/m -0,6 C 1,2 C 0,0 km/h (0 Bft) 0,00 %
_ Min-Zeit 22:40 00:00 00:00 13:55 02:00 - 02:00 - - - - - 22:40 04:10 02:00 00:00
Minimum _ 0,0 C 0,0 C 0,0 C 75 % 1012,5 hPa - 0,0 km/h (0 Bft) - - - - - -1,6 C -1,8 C 0,0 km/h (0 Bft) 0,00 %
_ Max-Zeit 14:25 00:00 00:00 07:25 23:00 18:15 04:55 - - 00:00 00:00 00:00 14:25 14:30 04:55 00:00
Maximum _ 6,4 C 0,0 C 0,0 C 89 % 1025,5 hPa 0,3 l/m 12,7 km/h
NW (3 Bft)
- - 0 min 0,000 mm 0 W/m 2,3 C 6,3 C 12,7 km/h
NW (3 Bft)
0,00 %
Durchschnitt _ 2,5 C 0,0 C 0,0 C 85 % 1018,0 hPa #0,3 l/m 2,4 km/h (1 Bft) W - #0 min. #0,000 mm 0 W/m 0,2 C 2,1 C 2,4 km/h (1 Bft) 0,00 %
Wetterstation Gdesweiler